Wind_Speed
3 3 4 3 3 2 2 2 2 2 2 2 2 2 2 2 3 3 2 2 2 1 1 2 1 2 1 1 1 0 1 1 1 2 2 1 1 1 1 2 2 2 2
3 3 3 3 2 2 2 2 1 1 2 1 1 1 2 2 2 2 2 2 1 1 1 1 1 2 2 2 1 0 0 0 1 1 2 1 1 1 1 2 2 3 3
3 2 2 1 1 1 1 1 1 1 1 1 1 0 1 1 1 2 2 2 1 1 1 1 1 1 1 1 1 1 0 1 1 1 1 2 2 2 2 2 3 4 4
3 2 1 1 1 0 1 1 1 1 1 0 0 0 1 1 2 2 2 2 1 1 1 1 2 1 1 1 2 1 1 1 1 1 2 2 2 3 3 3 3 4 4
3 3 1 1 0 1 1 1 1 1 1 0 0 1 1 1 1 2 2 2 2 2 2 2 2 3 2 2 3 3 3 2 2 3 3 3 4 4 4 4 4 4 5
3 2 2 1 1 1 2 2 2 1 1 1 1 1 1 1 2 3 3 3 3 3 3 3 3 3 4 4 4 4 4 4 4 4 4 5 5 5 5 6 6 6 6
3 3 2 2 2 2 3 2 2 2 1 1 1 2 2 2 3 3 4 4 4 4 4 4 4 5 5 5 5 5 6 6 6 6 6 6 7 7 7 7 7 8 8
4 3 3 3 3 2 2 3 3 3 3 3 3 3 4 3 3 4 4 4 4 4 5 5 5 5 5 5 6 7 7 7 7 7 7 8 8 8 8 8 9 9 9
5 5 4 4 4 3 3 3 3 4 4 4 4 4 4 5 5 4 4 4 5 5 5 5 6 7 7 7 8 8 8 9 8 8 9 10 10 10 10 10 10 10 11
5 5 5 4 4 4 4 3 3 4 4 4 4 4 5 6 6 7 6 6 6 6 6 6 7 8 8 9 9 10 10 10 10 11 11 11 11 12 12 12 12 12 12
5 5 5 4 4 4 4 4 4 4 5 5 5 6 6 7 8 8 8 8 8 8 8 8 8 9 10 11 11 11 12 12 12 13 13 13 12 12 13 13 13 13 13
5 4 5 5 4 4 4 5 5 5 5 6 7 7 7 8 8 8 8 9 10 10 10 10 10 11 11 12 13 13 13 13 14 14 14 15 15 15 14 14 15 15 15
5 4 4 5 5 4 5 5 6 6 7 7 8 8 8 8 9 9 9 10 10 11 12 12 13 12 13 14 14 14 14 14 14 15 15 16 16 17 16 16 16 17 17
5 5 5 6 6 5 5 6 7 7 7 8 7 8 8 8 9 9 10 11 11 12 13 14 14 14 14 15 15 15 15 15 16 16 17 17 17 18 18 18 18 19 20
5 6 6 7 7 7 7 7 8 8 8 9 9 9 9 9 10 11 11 12 12 13 14 15 15 15 15 16 16 15 15 16 17 17 17 18 19 19 20 20 21 21 22
6 6 7 7 8 8 8 9 9 8 9 9 9 10 11 12 12 12 13 13 13 13 13 15 15 15 15 16 16 16 16 16 17 18 18 19 20 21 22 23 23 23 24
8 8 8 8 8 9 9 9 9 9 9 9 10 11 12 13 13 13 13 13 13 13 14 14 15 15 15 16 17 17 18 18 19 19 19 20 21 23 23 24 25 26 26
9 9 9 9 9 10 9 10 10 10 10 11 11 12 12 13 13 13 14 14 14 15 15 15 16 16 16 17 17 17 17 18 19 19 19 20 21 22 23 24 25 26 27
10 10 10 9 10 10 11 10 10 11 11 11 12 12 13 13 13 13 14 14 15 16 16 16 17 18 18 17 18 18 19 20 21 21 21 21 22 23 24 25 26 27 28
11 11 11 11 11 12 11 11 11 11 12 13 13 13 13 13 13 13 14 15 16 17 18 18 19 19 19 19 19 20 21 21 23 23 23 23 24 25 25 26 27 27 29
13 12 12 12 12 12 13 13 13 13 13 14 13 13 13 14 14 14 15 17 17 18 19 19 19 19 20 20 21 21 21 22 23 23 24 24 25 26 27 28 28 29 31
15 14 14 13 13 13 14 14 14 14 14 14 13 14 14 14 15 16 17 17 18 19 19 19 20 20 21 21 21 22 22 23 24 25 25 26 27 27 28 29 30 31 32
16 16 15 15 15 15 15 15 14 14 15 15 15 15 16 16 16 17 17 18 19 20 20 20 21 21 21 21 22 23 24 24 25 26 27 28 29 29 30 30 31 32 34
18 17 16 16 16 16 16 15 15 15 16 16 16 16 16 17 17 18 18 18 19 19 20 20 21 21 22 23 23 24 25 26 27 27 28 29 29 30 32 32 33 34 34
17 17 16 16 16 16 16 15 15 15 15 16 17 17 17 17 18 18 19 19 20 20 21 21 22 23 24 24 25 26 27 27 28 29 30 31 31 32 33 34 35 35 36
17 17 17 17 17 17 17 16 15 16 16 17 17 17 18 19 19 20 20 20 21 22 23 23 24 25 25 26 27 28 29 29 30 31 32 33 33 34 34 35 36 37 37
Wind_Direction
84 106 99 91 76 70 74 74 86 90 97 119 94 81 74 50 53 54 53 49 42 34 31 30 25 23 21 22 41 108 61 112 169 185 187 188 161 176 185 183 190 209 225
73 90 102 94 82 72 76 79 90 99 101 122 106 65 42 46 46 31 37 40 31 21 17 17 39 36 29 36 56 332 208 194 175 190 202 217 223 229 218 215 223 232 243
48 68 65 75 106 81 80 95 102 106 114 122 120 38 26 27 351 351 18 25 24 14 329 336 10 25 352 353 3 7 277 239 211 206 223 232 231 229 232 242 245 243 247
19 16 15 62 157 171 154 155 155 128 140 143 184 302 330 323 307 320 347 346 335 292 282 296 286 291 283 313 340 347 332 272 237 242 252 247 241 242 252 261 257 252 253
2 351 321 307 216 191 190 188 178 173 175 244 286 307 335 344 347 337 330 318 313 312 296 286 286 282 284 302 302 299 301 278 266 265 265 259 256 257 258 265 262 258 259
351 350 327 294 264 235 225 216 213 211 217 231 295 337 348 7 347 320 319 314 309 302 297 294 292 296 293 296 296 288 285 277 273 272 270 267 264 267 266 266 264 262 261
339 344 323 306 293 261 244 229 232 245 249 255 268 294 298 317 320 321 315 312 308 301 303 300 290 295 304 291 282 282 282 275 273 271 270 265 268 271 272 271 269 267 265
317 317 309 291 275 266 249 250 258 263 268 279 281 280 283 293 305 314 314 306 300 298 299 296 291 295 295 285 279 278 275 274 275 275 271 268 270 271 271 272 272 271 268
313 313 307 293 269 262 254 257 264 267 270 280 286 283 283 289 294 298 305 304 300 298 300 292 291 292 294 287 283 281 276 273 273 276 274 273 273 271 270 271 273 273 270
318 313 302 298 282 270 262 257 272 270 270 276 284 288 290 293 296 299 301 297 296 294 291 290 288 289 292 291 287 283 275 273 272 272 273 275 277 274 272 271 273 272 272
328 315 305 304 298 287 278 267 273 269 269 278 283 285 288 289 291 291 290 291 291 290 292 288 286 286 288 289 286 282 275 271 272 271 271 272 275 275 273 274 274 274 274
320 311 308 310 303 296 283 280 279 279 279 281 287 285 285 286 291 289 287 287 286 289 294 293 289 287 288 291 290 284 278 273 273 273 272 271 271 273 273 274 274 274 275
310 301 301 304 294 287 284 282 280 283 284 288 288 288 286 285 292 291 289 288 288 290 291 291 291 291 289 291 293 289 280 277 276 276 273 272 271 270 272 273 273 275 276
302 295 295 301 295 287 285 284 283 283 286 288 288 291 288 287 290 293 291 288 289 290 291 290 290 291 290 290 292 289 282 278 279 279 276 274 272 271 271 273 273 274 275
304 296 295 295 292 287 285 287 289 287 285 287 288 289 289 291 291 292 292 289 286 285 287 289 289 290 289 289 289 285 281 280 278 278 278 276 275 273 272 272 273 275 275
309 304 300 294 290 288 289 289 289 286 287 288 288 288 288 289 293 294 294 293 292 293 291 290 289 291 291 292 291 287 284 283 282 281 280 278 277 276 275 273 273 275 277
305 300 299 296 291 290 289 288 288 290 291 285 286 287 287 288 292 292 293 294 296 296 296 292 291 293 294 293 292 289 287 282 281 282 282 279 278 279 278 276 275 276 277
306 305 300 294 291 290 288 287 288 290 290 289 287 289 292 292 296 292 290 293 295 295 295 294 294 295 293 293 292 292 290 288 285 284 286 286 284 281 279 277 277 277 278
302 304 302 296 293 293 290 289 291 293 293 291 292 295 295 296 294 291 291 292 294 294 294 291 292 294 292 292 292 291 289 289 287 287 287 287 286 284 282 281 278 279 279
297 298 300 297 296 296 295 294 293 293 293 293 295 298 296 296 296 291 290 291 292 293 293 293 291 289 290 291 291 291 290 289 290 288 287 286 287 286 284 284 283 283 283
292 293 294 293 295 296 296 296 293 292 291 292 296 297 297 298 299 293 291 294 294 293 293 294 293 290 291 290 290 291 290 290 291 290 288 287 288 287 286 285 285 285 285
286 288 288 290 292 293 294 296 294 294 294 294 293 294 296 298 300 298 294 295 296 295 294 294 295 294 293 292 292 292 293 292 293 292 291 290 291 291 290 289 287 286 285
286 286 286 287 289 290 290 292 293 292 294 295 292 291 293 295 297 299 299 297 299 299 298 296 295 296 296 295 294 293 294 294 294 292 291 291 292 292 292 291 290 289 287
285 286 284 286 289 289 289 286 286 289 292 294 294 291 293 294 296 297 298 301 303 304 303 301 300 298 297 297 296 296 295 294 293 293 293 292 293 293 293 292 292 291 289
283 282 284 286 290 290 289 287 287 289 292 293 293 293 293 295 296 298 300 302 303 302 303 303 301 300 297 296 295 295 295 294 294 293 293 292 292 292 292 292 292 290 289
279 279 282 283 286 289 290 289 288 289 290 292 293 294 293 293 295 297 300 302 302 302 303 303 303 301 299 297 296 296 295 294 293 293 294 293 293 293 293 293 292 292 290
Height
5895 5895 5895 5895 5895 5895 5895 5895 5895 5895 5895 5895 5896 5896 5896 5896 5896 5896 5896 5896 5896 5896 5896 5896 5895 5895 5895 5895 5895 5895 5895 5895 5895 5896 5896 5896 5897 5897 5897 5898 5898 5899 5899
5895 5895 5895 5895 5895 5895 5895 5895 5895 5895 5895 5896 5896 5896 5897 5897 5897 5897 5896 5897 5897 5896 5896 5896 5896 5896 5896 5895 5895 5895 5895 5896 5896 5896 5896 5896 5897 5897 5897 5898 5898 5898 5899
5896 5896 5896 5896 5896 5896 5896 5896 5896 5896 5896 5896 5897 5897 5897 5897 5897 5897 5897 5897 5897 5897 5896 5896 5896 5896 5896 5896 5896 5895 5895 5896 5896 5896 5896 5896 5896 5897 5897 5897 5897 5898 5898
5896 5896 5896 5896 5896 5896 5896 5896 5896 5896 5896 5897 5897 5897 5897 5897 5897 5897 5897 5897 5897 5897 5897 5896 5896 5896 5896 5896 5896 5896 5896 5895 5896 5896 5896 5896 5896 5896 5897 5897 5897 5897 5897
5896 5896 5896 5896 5896 5896 5896 5896 5896 5896 5896 5897 5897 5897 5897 5897 5897 5896 5896 5896 5896 5896 5896 5896 5896 5896 5896 5896 5895 5895 5895 5895 5895 5895 5896 5896 5896 5896 5896 5896 5896 5896 5896
5897 5896 5896 5896 5895 5896 5896 5896 5896 5896 5896 5896 5896 5896 5896 5896 5896 5896 5896 5896 5896 5896 5896 5895 5895 5895 5895 5895 5895 5895 5894 5894 5894 5895 5895 5895 5895 5895 5895 5895 5895 5895 5895
5897 5896 5896 5896 5896 5896 5896 5896 5896 5896 5896 5896 5896 5896 5896 5896 5896 5896 5896 5896 5895 5895 5895 5895 5895 5894 5894 5894 5894 5894 5893 5893 5893 5893 5893 5893 5894 5894 5893 5893 5894 5894 5894
5896 5896 5896 5895 5895 5895 5895 5896 5896 5896 5896 5896 5896 5896 5896 5896 5896 5895 5895 5895 5895 5894 5894 5894 5894 5893 5893 5893 5893 5893 5892 5892 5892 5892 5892 5892 5892 5892 5892 5892 5892 5892 5892
5896 5895 5895 5895 5895 5895 5895 5895 5896 5896 5896 5896 5895 5895 5895 5895 5895 5895 5894 5894 5894 5893 5893 5893 5893 5892 5892 5892 5891 5891 5891 5891 5891 5891 5890 5890 5890 5890 5890 5890 5890 5889 5889
5895 5895 5895 5894 5894 5895 5895 5895 5895 5895 5895 5895 5895 5894 5895 5894 5894 5894 5894 5893 5893 5892 5892 5891 5891 5891 5891 5890 5890 5889 5889 5889 5889 5888 5888 5888 5888 5888 5888 5887 5887 5887 5887
5895 5895 5894 5894 5894 5894 5894 5894 5894 5894 5894 5894 5894 5893 5893 5893 5892 5892 5892 5892 5891 5891 5890 5890 5889 5889 5889 5888 5887 5887 5886 5886 5886 5886 5886 5885 5885 5885 5885 5885 5884 5884 5884
5894 5894 5894 5893 5893 5893 5893 5893 5893 5893 5893 5893 5892 5892 5891 5891 5891 5890 5890 5890 5890 5889 5888 5888 5887 5887 5886 5885 5885 5884 5883 5883 5883 5883 5882 5882 5882 5882 5881 5881 5881 5880 5880
5894 5894 5893 5893 5892 5892 5892 5892 5892 5892 5891 5891 5891 5890 5889 5889 5889 5889 5888 5888 5887 5887 5886 5885 5884 5884 5883 5882 5881 5880 5880 5879 5879 5879 5878 5878 5878 5878 5877 5877 5877 5876 5876
5893 5893 5892 5892 5891 5891 5891 5891 5891 5890 5890 5890 5889 5888 5888 5887 5887 5887 5886 5886 5885 5884 5883 5882 5881 5881 5880 5879 5878 5876 5876 5876 5875 5875 5874 5874 5873 5873 5873 5872 5872 5872 5871
5892 5892 5891 5891 5890 5890 5890 5889 5889 5889 5888 5888 5887 5886 5886 5885 5885 5884 5883 5883 5882 5882 5881 5879 5878 5877 5876 5875 5874 5873 5872 5871 5871 5870 5870 5869 5869 5868 5868 5867 5867 5866 5866
5892 5891 5890 5890 5889 5889 5888 5888 5887 5887 5886 5886 5885 5884 5884 5883 5882 5881 5880 5879 5878 5878 5877 5876 5875 5873 5872 5871 5870 5869 5868 5867 5867 5866 5865 5864 5864 5863 5863 5862 5861 5861 5860
5890 5890 5889 5888 5887 5887 5886 5886 5885 5885 5884 5883 5882 5882 5881 5880 5879 5878 5877 5876 5875 5874 5873 5872 5871 5870 5868 5867 5866 5865 5864 5863 5862 5861 5860 5859 5858 5857 5856 5856 5855 5854 5853
5889 5888 5887 5886 5885 5885 5884 5884 5883 5882 5881 5880 5880 5879 5878 5877 5875 5874 5873 5872 5871 5871 5870 5869 5867 5866 5865 5863 5862 5861 5860 5859 5857 5856 5855 5854 5852 5851 5850 5849 5848 5847 5846
5887 5886 5885 5884 5884 5883 5882 5881 5881 5880 5879 5878 5877 5876 5875 5874 5872 5871 5869 5868 5868 5867 5866 5865 5863 5862 5860 5859 5858 5857 5855 5854 5852 5851 5849 5848 5847 5845 5844 5842 5841 5840 5839
5885 5884 5883 5882 5881 5880 5880 5879 5878 5877 5876 5875 5874 5873 5871 5870 5868 5867 5866 5865 5864 5863 5861 5860 5858 5857 5856 5855 5853 5852 5850 5848 5847 5845 5843 5842 5840 5839 5837 5836 5834 5832 5831
5882 5881 5881 5880 5879 5878 5877 5876 5875 5874 5873 5872 5871 5869 5868 5867 5865 5863 5863 5861 5860 5858 5857 5855 5854 5852 5851 5849 5848 5846 5845 5843 5841 5839 5837 5835 5834 5832 5830 5828 5826 5825 5823
5879 5878 5878 5877 5876 5875 5874 5873 5872 5871 5870 5868 5868 5866 5865 5863 5862 5860 5858 5857 5855 5854 5852 5851 5849 5847 5846 5844 5842 5840 5839 5837 5835 5833 5830 5828 5826 5824 5822 5820 5818 5816 5814
5875 5875 5874 5873 5872 5871 5870 5869 5868 5867 5866 5865 5864 5863 5861 5860 5858 5856 5855 5853 5851 5849 5847 5846 5844 5842 5840 5838 5836 5834 5832 5831 5828 5826 5824 5821 5819 5817 5814 5812 5809 5807 5804
5871 5871 5870 5869 5868 5867 5866 5865 5864 5863 5862 5861 5860 5859 5858 5856 5854 5853 5851 5849 5847 5845 5843 5840 5839 5837 5835 5832 5830 5828 5826 5824 5821 5819 5816 5814 5811 5808 5806 5803 5800 5797 5794
5867 5867 5866 5865 5864 5863 5862 5861 5861 5860 5859 5857 5856 5855 5853 5852 5851 5849 5847 5845 5843 5840 5838 5836 5833 5831 5828 5826 5824 5822 5819 5816 5814 5811 5808 5806 5803 5800 5797 5794 5791 5787 5784
5863 5862 5862 5861 5860 5859 5858 5857 5856 5856 5855 5853 5852 5851 5849 5848 5846 5844 5842 5840 5838 5835 5833 5830 5828 5825 5822 5820 5817 5815 5812 5809 5806 5803 5800 5797 5794 5790 5787 5784 5781 5777 5774